1393632033004,177.195
1393632093004,177.217
1393632153004,176.986
1393632213004,177.284
1393632273004,177.088
1393632333004,177.221
1393632393004,177.215
1393632453004,177.199
1393632513004,176.937
1393632573004,176.994
1393632633004,177.053
1393632693004,176.978
1393632753004,177.211
1393632813004,177.035
1393632873004,177.017
1393632933004,177.401
1393632993004,176.815
1393633053004,176.881
1393633113004,177.014
1393633173004,176.900
1393633233004,177.103
1393633293004,177.142
1393633353004,177.195
1393633413004,177.189
1393633473004,177.141
1393633533004,177.101
1393633593004,177.094
1393633653004,176.885
1393633713004,177.434
1393633773004,177.227
1393633833004,177.335
1393633893004,177.671
1393633953004,177.783
1393634013004,177.504
1393634073004,177.363
1393634133004,177.291
1393634193004,177.484
1393634253004,177.289
1393634313004,177.370
1393634373004,177.537
1393634433004,177.434
1393634493004,177.706
1393634553004,177.432
1393634613004,177.682
1393634673004,177.660
1393634733004,177.594
1393634793004,177.427
1393634853004,177.677
1393634913004,177.867
1393634973004,177.588
1393635033004,177.841
1393635093004,178.127
1393635153004,177.415
1393635213004,178.174
1393635273004,178.089
1393635333004,177.951
1393635393004,178.046
1393635453004,177.986
1393635513004,178.241
1393635573004,177.936
1393635633016,178.492
1393635693016,178.220
1393635753016,178.423
1393635813016,177.796
1393635873016,178.327
1393635933016,178.066
1393635993016,178.053
1393636053016,177.822
1393636113016,178.098
1393636173016,177.872
1393636233016,177.798
1393636293016,177.717
1393636353016,178.314
1393636413016,177.910
1393636473016,178.009
1393636533016,177.583
1393636593016,178.082
1393636653016,178.328
1393636713016,177.754
1393636773016,178.252
1393636833016,178.427
1393636893016,178.500
1393636953016,178.812
1393637013016,178.664
1393637073016,178.082
1393637133016,178.384
1393637193016,178.503
1393637253016,178.735
1393637313016,178.256
1393637373016,178.481
1393637433016,178.917
1393637493016,178.088
1393637553016,178.501
1393637613016,178.370
1393637673016,178.324
1393637733016,178.776
1393637793016,178.519
1393637853016,178.565
1393637913016,178.580
1393637973016,178.586
1393638033016,178.691
1393638093016,178.853
1393638153016,178.433
1393638213016,178.644
1393638273016,178.451
1393638333016,178.394
1393638393016,178.816
1393638453016,178.830
1393638513016,178.746
1393638573016,178.429
1393638633016,178.834
1393638693016,178.946
1393638753016,178.806
1393638813016,179.114
1393638873016,178.951
1393638933016,179.021
1393638993016,179.028
1393639053016,178.956
1393639113016,178.924
1393639173016,179.153
1393639233029,179.074
1393639293029,179.210
1393639353029,179.567
1393639413029,179.395
1393639473029,179.116
1393639533029,179.161
1393639593029,179.403
1393639653029,179.318
1393639713029,179.315
1393639773029,179.726
1393639833029,179.389
1393639893029,179.453
1393639953029,179.585
1393640013029,179.622
1393640073029,179.454
1393640133029,179.431
1393640193029,179.994
1393640253029,179.703
1393640313029,179.882
1393640373029,179.930
1393640433029,179.660
1393640493029,179.310
1393640553029,179.965
1393640613029,179.616
1393640673029,179.927
1393640733029,179.652
1393640793029,180.104
1393640853029,179.903
1393640913029,179.882
1393640973029,180.016
1393641033029,180.198
1393641093029,180.189
1393641153029,179.858
1393641213029,179.815
1393641273029,180.510
1393641333029,180.188
1393641393029,180.582
1393641453029,180.161
1393641513029,180.072
1393641573029,180.158
1393641633029,180.442
1393641693029,179.594
1393641753029,180.435
1393641813029,179.796
1393641873029,180.030
1393641933029,179.767
1393641993029,179.817
1393642053029,180.050
1393642113029,180.323
1393642173029,180.113
1393642233029,180.175
1393642293029,179.990
1393642353029,179.998
1393642413029,179.688
1393642473029,180.176
1393642533029,179.889
1393642593029,180.004
1393642653029,179.924
1393642713029,180.165
1393642773029,179.877
1393642833042,179.689
1393642893042,180.065
1393642953042,179.710
1393643013042,179.791
1393643073042,179.401
1393643133042,179.679
1393643193042,179.676
1393643253042,179.747
1393643313042,179.867
1393643373042,179.504
1393643433042,179.643
1393643493042,179.450
1393643553042,179.699
1393643613042,179.538
1393643673042,179.685
1393643733042,179.832
1393643793042,179.344
1393643853042,179.958
1393643913042,179.953
1393643973042,179.810
1393644033042,179.961
1393644093042,179.510
1393644153042,179.487
1393644213042,179.634
1393644273042,179.487
1393644333042,179.570
1393644393042,179.873
1393644453042,179.423
1393644513042,179.318
1393644573042,179.839
1393644633042,179.819
1393644693042,179.765
1393644753042,179.635
1393644813042,179.324
1393644873042,179.646
1393644933042,179.725
1393644993042,179.799
1393645053042,179.570
1393645113042,179.559
1393645173042,179.504
1393645233042,179.815
1393645293042,179.544
1393645353042,179.713
1393645413042,179.519
1393645473042,179.794
1393645533042,179.966
1393645593042,179.353
1393645653042,179.654
1393645713042,179.756
1393645773042,179.379
1393645833042,179.713
1393645893042,179.365
1393645953042,179.274
1393646013042,179.828
1393646073042,179.736
1393646133042,178.971
1393646193042,179.604
1393646253042,179.433
1393646313042,179.549
1393646373042,179.692
1393646433055,179.708
1393646493055,179.536
1393646553055,179.577
1393646613054,179.695
1393646673054,179.648
1393646733054,179.169
1393646793054,179.457
1393646853054,179.324
1393646913054,179.142
1393646973054,179.412
1393647033054,179.029
1393647093054,179.410
1393647153054,179.054
1393647213054,178.863
1393647273054,179.366
1393647333054,179.221
1393647393054,178.890
1393647453054,179.017
1393647513054,178.843
1393647573054,179.188
1393647633054,178.720
1393647693055,179.294
1393647753055,179.038
1393647813055,178.830
1393647873055,178.827
1393647933054,179.195
1393647993054,179.032
1393648053054,179.035
1393648113054,178.685
1393648173054,178.959
1393648233054,178.817
1393648293054,179.068
1393648353054,178.756
1393648413054,179.294
1393648473054,179.132
1393648533054,179.361
1393648593054,179.386
1393648653054,179.100
1393648713054,179.160
1393648773054,179.252
1393648833054,179.482
1393648893054,178.997
1393648953054,179.407
1393649013055,179.187
1393649073055,179.074
1393649133055,179.287
1393649193055,178.793
1393649253055,179.418
1393649313054,179.337
1393649373054,179.486
1393649433054,179.701
1393649493054,179.071
1393649553054,178.996
1393649613054,179.479
1393649673054,179.608
1393649733054,179.511
1393649793054,179.747
1393649853054,179.413
1393649913054,179.418
1393649973054,179.446
1393650033067,179.191
1393650093067,179.215
1393650153067,179.103
1393650213067,179.650
1393650273067,179.041
1393650333067,179.130
1393650393067,179.437
1393650453067,179.424
1393650513067,179.548
1393650573067,179.807
1393650633067,179.442
1393650693067,179.413
1393650753067,179.442
1393650813067,179.628
1393650873067,179.801
1393650933067,179.486
1393650993067,179.458
1393651053067,179.466
1393651113067,179.616
1393651173067,179.668
1393651233067,179.920
1393651293067,180.052
1393651353067,179.458
1393651413067,179.693
1393651473067,179.559
1393651533067,179.803
1393651593067,179.844
1393651653067,179.999
1393651713067,179.700
1393651773067,179.769
1393651833067,179.720
1393651893067,180.201
1393651953067,180.089
1393652013067,180.231
1393652073067,180.472
1393652133067,180.331
1393652193067,180.330
1393652253067,180.289
1393652313067,180.457
1393652373067,180.799
1393652433067,180.927
1393652493067,180.683
1393652553067,180.623
1393652613067,180.427
1393652673067,180.750
1393652733067,181.497
1393652793067,181.105
1393652853067,180.916
1393652913067,181.065
1393652973067,180.790
1393653033067,181.273
1393653093067,180.990
1393653153067,180.948
1393653213067,180.853
1393653273067,180.924
1393653333067,180.809
1393653393067,180.449
1393653453067,180.772
1393653513067,180.691
1393653573067,180.533
1393653633080,180.657
1393653693080,180.437
1393653753080,180.425
1393653813080,180.829
1393653873080,180.576
1393653933080,180.529
1393653993080,180.355
1393654053080,180.453
1393654113080,180.506
1393654173080,180.848
1393654233080,180.725
1393654293080,180.616
1393654353080,180.759
1393654413080,180.841
1393654473080,180.615
1393654533080,181.017
1393654593080,180.948
1393654653080,181.348
1393654713080,180.800
1393654773080,181.170
1393654833080,180.935
1393654893080,181.021
1393654953080,180.980
1393655013080,180.978
1393655073080,181.133
1393655133080,181.016
1393655193080,181.027
1393655253080,181.162
1393655313080,180.719
1393655373080,180.966
1393655433080,181.223
1393655493080,180.922
1393655553080,181.496
1393655613080,181.171
1393655673080,180.998
1393655733080,181.395
1393655793080,181.264
1393655853080,181.434
1393655913080,181.044
1393655973080,181.046
1393656033080,181.376
1393656093080,181.201
1393656153080,181.142
1393656213080,181.364
1393656273080,181.151
1393656333080,181.075
1393656393080,180.661
1393656453080,180.725
1393656513080,180.479
1393656573080,178.668
1393668333129,178.062
1393668393129,177.672
1393668453129,177.956
1393668513129,177.645
1393668573129,178.030
1393668633129,178.073
1393668693129,177.908
1393668753129,177.310
1393668813129,177.698
1393668873129,177.655
1393668933129,177.549
1393668993129,177.841
1393669053129,177.993
1393669113129,177.532
1393669173129,177.620
1393669233129,177.559
1393669293129,177.803
1393669353129,176.962
1393669413129,177.249
1393669473129,177.208
1393669533129,177.169
1393669593129,177.259
1393669653129,176.932
1393669713129,177.225
1393669773129,177.212
1393669833129,177.540
1393669893129,177.160
1393669953129,177.385
1393670013129,177.055
1393670073129,176.783
1393670133129,176.940
1393670193129,176.954
1393670253129,177.166
1393670313129,176.923
1393670373129,177.180
1393670433129,176.946
1393670493129,176.950
1393670553129,176.892
1393670613129,176.343
1393670673129,176.686
1393670733129,176.522
1393670793129,176.506
1393670853129,176.436
1393670913129,176.113
1393670973129,176.463
1393671033129,176.470
1393671093129,175.966
1393671153129,176.209
1393671213129,176.490
1393671273129,176.237
1393671333129,175.952
1393671393129,176.311
1393671453129,176.177
1393671513129,176.031
1393671573129,175.816
1393671633142,175.995
1393671693142,176.067
1393671753142,175.884
1393671813142,176.010
1393671873142,176.075
1393671933142,176.322
1393671993142,176.043
1393672053142,175.979
1393672113142,175.846
1393672173142,175.788
1393672233142,175.998
1393672293142,176.469
1393672833142,175.974
1393672893142,172.849
1393672953142,176.052
1393673013142,175.866
1393673073142,176.164
1393673133142,176.324
1393673193142,176.020
1393673253142,176.176
1393673313142,176.012
1393673373142,176.262
1393673433142,175.935
1393673493142,176.174
1393673553142,176.065
1393673613142,175.957
1393673673142,175.980
1393673733142,176.095
1393673793142,175.521
1393673853142,175.833
1393673913142,176.327
1393673973142,175.780
1393674033142,176.025
1393674093142,176.030
1393674153142,176.187
1393674213142,175.896
1393674273142,176.138
1393674333142,176.261
1393674393142,176.097
1393674453142,176.044
1393674513142,176.175
1393674573142,176.354
1393674633142,176.117
1393674693142,175.904
1393674753142,176.203
1393674813142,176.158
1393674873142,176.104
1393674933142,176.040
1393674993142,175.663
1393675053142,176.283
1393675113142,176.424
1393675173142,176.206
1393675233155,176.174
1393675293154,176.305
1393675353154,176.378
1393675413154,176.301
1393675473154,176.335
1393675533154,176.570
1393675593154,176.144
1393675653154,176.412
1393675713154,176.108
1393675773154,176.260
1393675833154,176.225
1393675893154,176.068
1393675953154,176.376
1393676013154,176.057
1393676073154,175.880
1393676133154,176.309
1393676193154,176.036
1393676253154,176.619
1393676313154,176.564
1393676373155,176.445
1393676433155,175.985
1393676493155,176.469
1393676553155,176.271
1393676613154,176.198
1393676673154,176.165
1393676733154,175.623
1393676793154,175.724
1393676853154,175.952
1393676913154,176.008
1393676973154,175.768
1393677033154,176.387
1393677093154,175.948
1393677153154,176.091
1393677213154,175.797
1393677273154,176.038
1393677333154,176.216
1393677393154,175.922
1393677453154,175.949
1393677513154,176.451
1393677573154,176.091
1393677633154,176.181
1393677693155,176.028
1393677753155,176.134
1393677813155,175.941
1393677873155,175.804
1393677933155,175.836
1393677993154,175.656
1393678053154,175.609
1393678113154,175.646
1393678173154,175.802
1393678233154,175.755
1393678293154,175.593
1393678353154,176.129
1393678413154,175.371
1393678473154,175.673
1393678533154,175.809
1393678593154,176.094
1393678653154,175.776
1393678713154,176.179
1393678773154,176.038
1393678833167,176.101
1393678893167,175.756
1393678953167,175.714
1393679013167,175.848
1393679073167,175.150
1393679133167,175.618
1393679193167,175.548
1393679253167,175.643
1393679313167,175.646
1393679373167,175.105
1393679433167,175.367
1393679493167,175.152
1393679553167,174.968
1393679613167,175.175
1393679673167,175.206
1393679733167,174.905
1393679793167,175.126
1393679853167,175.333
1393679913167,174.667
1393679973167,175.235
1393680033167,175.313
1393680093167,176.019
1393680153167,175.800
1393680213167,175.619
1393680273167,176.337
1393680333167,175.945
1393680393167,176.096
1393680453167,176.083
1393680513167,176.229
1393680573167,176.021
1393680633167,176.195
1393680693167,176.157
1393680753167,175.842
1393680813167,176.058
1393680873167,175.891
1393680933167,175.683
1393680993167,175.754
1393681053167,175.650
1393681113167,175.244
1393681173167,175.492
1393681233167,175.084
1393681293167,175.179
1393681353167,174.841
1393681413167,174.719
1393681473167,174.469
1393681533167,174.786
1393681593167,174.670
1393681653167,174.881
1393681713167,174.720
1393681773167,174.313
1393681833167,174.518
1393681893167,174.534
1393681953167,174.703
1393682013167,174.485
1393682073167,174.422
1393682133167,174.218
1393682193167,174.454
1393682253167,174.191
1393682313167,174.658
1393682373167,174.191
1393682433180,174.208
1393682493180,174.221
1393682553180,174.184
1393682613180,174.433
1393682673180,174.031
1393682733180,174.396
1393682793180,174.294
1393682853180,174.173
1393682913180,174.736
1393682973180,174.416
1393683033180,174.340
1393683093180,174.556
1393683153180,174.297
1393683213180,174.203
1393683273180,174.286
1393683333180,173.969
1393683393180,174.306
1393683453180,174.451
1393683513180,174.396
1393683573180,174.304
1393683633180,174.350
1393683693180,174.258
1393683753180,174.281
1393683813180,174.345
1393683873180,174.196
1393683933180,174.179
1393683993180,174.013
1393684053180,174.208
1393684113180,174.304
1393684173180,174.191
1393684233180,174.234
1393684293180,174.432
1393684353180,173.743
1393684413180,174.524
1393684473180,173.932
1393684533180,173.876
1393684593180,174.020
1393684653180,174.049
1393684713180,174.042
1393684773180,173.845
1393684833180,173.797
1393684893180,173.652
1393684953180,173.982
1393685013180,173.749
1393685073180,174.217
1393685133180,173.884
1393685193180,173.855
1393685253180,173.889
1393685313180,174.000
1393685373180,173.814
1393685433180,173.743
1393685493180,173.924
1393685553180,173.895
1393685613180,174.036
1393685673180,174.095
1393685733180,173.842
1393685793180,173.835
1393685853180,173.586
1393685913180,173.913
1393685973180,173.783
1393686033192,174.277
1393686093192,173.697
1393686153192,173.680
1393686213192,173.729
1393686273192,173.842
1393686333192,174.105
1393686393192,173.802
1393686453192,173.960
1393686513192,174.084
1393686573192,174.123
1393686633192,173.601
1393686693192,173.965
1393686753192,174.014
1393686813192,173.666
1393686873192,173.721
1393686933192,174.074
1393686993192,173.908
1393687053192,173.783
1393687113192,174.085
1393687173192,173.952
1393687233192,174.199
1393687293192,173.551
1393687353192,173.930
1393687413192,173.757
1393687473192,173.793
1393687533192,173.856
1393687593192,174.009
1393687653192,173.800
1393687713192,174.133
1393687773192,174.378
1393687833192,174.357
1393687893192,173.984
1393687953192,174.290
1393688013192,174.678
1393688073192,174.480
1393688133192,174.557
1393688193192,174.390
1393688253192,174.485
1393688313192,174.608
1393688373192,174.250
1393688433192,174.731
1393688493192,174.777
1393688553192,174.863
1393688613192,174.952
1393688673192,175.283
1393688733192,175.146
1393688793192,175.501
1393688853192,175.602
1393688913192,175.070
1393688973192,175.552
1393689033192,175.524
1393689093192,175.291
1393689153192,175.584
1393689213192,175.276
1393689273192,175.735
1393689333192,175.242
1393689393192,175.582
1393689453192,175.247
1393689513192,175.093
1393689573192,175.321
1393689633205,175.054
1393689693205,175.393
1393689753205,175.183
1393689813205,175.043
1393689873205,175.241
1393689933205,175.056
1393689993205,175.240
1393690053205,175.128
1393690113205,174.976
1393690173205,175.213
1393690233205,175.047
1393690293205,175.265
1393690353205,174.928
1393690413205,175.096
1393690473205,175.325
1393690533205,175.466
1393690593205,175.116
1393690653205,174.930
1393690713205,175.247
1393690773205,175.038
1393690833205,175.467
1393690893205,175.344
1393690953205,175.132
1393691013205,175.615
1393691073205,175.150
1393691133205,175.128
1393691193205,175.187
1393691253205,175.086
1393691313205,175.074
1393691373205,175.249
1393691433205,174.951
1393691493205,175.175
1393691553205,174.925
1393691613205,175.334
1393691673205,174.983
1393691733205,174.868
1393691793205,174.833
1393691853205,174.561
1393691913205,174.619
1393691973205,174.849
1393692033205,175.097
1393692093205,175.163
1393692153205,174.720
1393692213205,174.723
1393692273205,174.841
1393692333205,174.705
1393692393205,175.087
1393692453205,174.719
1393692513205,174.775
1393692573205,174.865
1393692633205,174.531
1393692693205,174.969
1393692753205,174.878
1393692813205,174.867
1393692873205,174.756
1393692933205,174.789
1393692993205,174.307
1393693053205,174.684
1393693113205,174.884
1393693173205,175.001
1393693233218,175.332
1393693293218,175.010
1393693353218,175.236
1393693413218,175.490
1393693473218,175.031
1393693533218,174.961
1393693593218,175.813
1393693653218,175.505
1393693713218,175.775
1393693773218,175.775
1393693833218,175.354
1393693893218,175.511
1393693953218,175.510
1393694013218,176.316
1393694073218,175.496
1393694133218,175.560
1393694193218,175.595
1393694253218,175.577
1393694313218,175.266
1393694373218,175.648
1393694433218,175.458
1393694493218,175.078
1393694553218,175.527
1393694613218,175.600
1393694673218,175.228
1393694733218,174.890
1393694793218,175.172
1393694853218,175.178
1393694913218,175.463
1393694973218,175.407
1393695033218,175.186
1393695093218,175.183
1393695153218,175.100
1393695213218,174.917
1393695273218,174.825
1393695333218,175.029
1393695393218,175.185
1393695453218,174.717
1393695513218,174.746
1393695573218,175.084
1393695633218,174.694
1393695693218,174.805
1393695753218,175.272
1393695813218,174.982
1393695873218,174.938
1393695933218,175.067
1393695993218,175.104
1393696053218,175.140
1393696113218,174.824
1393696173218,175.038
1393696233218,175.535
1393696293218,175.029
1393696353218,174.951
1393696413218,174.904
1393696473218,175.283
1393696533218,175.115
1393696593218,175.102
1393696653218,175.154
1393696713218,174.993
1393696773218,175.162
1393696833230,175.278
1393696893230,175.394
1393696953230,175.194
1393697013230,175.258
1393697073230,175.350
1393697133230,175.318
1393697193230,175.471
1393697253230,175.613
1393697313230,175.354
1393697373230,175.532
1393697433230,175.482
1393697493230,175.838
1393697553230,175.677
1393697613230,175.791
1393697673230,175.764
1393697733230,175.483
1393697793230,175.857
1393697853230,175.605
1393697913230,175.967
1393697973230,175.733
1393698033230,175.883
1393698093230,175.717
1393698153230,175.535
1393698213230,175.955
1393698273230,175.641
1393698333230,175.893
1393698393230,175.892
1393698453230,175.942
1393698513230,176.014
1393698573230,176.075
1393698633230,176.042
1393698693230,175.931
1393698753230,176.118
1393698813230,175.988
1393698873230,176.191
1393698933230,175.988
1393698993230,176.204
1393699053230,176.022
1393699113230,175.879
1393699173230,176.187
1393699233230,175.890
1393699293230,175.967
1393699353230,176.573
1393699413230,176.192
1393699473230,176.059
1393699533230,176.162
1393699593230,176.091
1393699653230,175.952
1393699713230,176.108
1393699773230,176.125
1393699833230,176.338
1393699893230,175.916
1393699953230,176.280
1393700013230,175.980
1393700073230,175.948
1393700133230,175.788
1393700193230,175.940
1393700253230,175.849
1393700313230,175.689
1393700373230,176.055
1393700433243,175.938
1393700493243,175.900
1393700553243,175.552
1393700613243,175.815
1393700673243,175.864
1393700733243,175.609
1393700793243,175.532
1393700853243,175.635
1393700913243,175.630
1393700973243,175.810
1393701033243,175.410
1393701093243,175.831
1393701153243,175.600
1393701213243,175.831
1393701273243,175.785
1393701333243,175.636
1393701393243,175.867
1393701453243,176.007
1393701513243,175.631
1393701573243,175.775
1393701633243,175.330
1393701693243,175.828
1393701753243,176.048
1393701813243,176.009
1393701873243,175.847
1393701933243,175.772
1393701993243,175.608
1393702053243,175.524
1393702113243,175.822
1393702173243,175.215
1393702233243,175.526
1393702293243,175.524
1393702353243,175.739
1393702413243,175.370
1393702473243,175.536
1393702533243,175.551
1393702593243,176.008
1393702653243,175.728
1393702713243,175.792
1393702773243,175.893
1393702833243,175.467
1393702893243,175.476
1393702953243,175.471
1393703013243,175.814
1393703073243,175.773
1393703133243,175.710
1393703193243,175.783
1393703253243,176.339
1393703313243,176.225
1393703373243,176.127
1393703433243,176.385
1393703493243,176.403
1393703553243,176.256
1393703613243,176.123
1393703673243,176.267
1393703733243,176.795
1393703793243,176.390
1393703853243,176.178
1393703913243,176.362
1393703973243,176.525
1393704033255,176.172
1393704093255,176.135
1393704153255,176.380
1393704213255,176.140
1393704273255,176.022
1393704333255,176.540
1393704393255,176.237
1393704453255,176.372
1393704513255,175.786
1393704573255,176.463
1393704633255,176.179
1393704693255,176.276
1393704753255,176.312
1393704813255,175.951
1393704873255,176.286
1393704933255,176.269
1393704993255,176.172
1393705053255,176.190
1393705113255,175.920
1393705173255,176.105
1393705233255,176.427
1393705293255,176.296
1393705353255,176.137
1393705413255,176.043
1393705473255,176.205
1393705533255,176.018
1393705593255,175.985
1393705653255,176.039
1393705713255,176.161
1393705773255,176.231
1393705833255,176.443
1393705893255,176.168
1393705953255,176.139
1393706013255,176.062
1393706073255,176.294
1393706133255,176.205
1393706193255,176.458
1393706253255,176.639
1393706313255,176.207
1393706373255,175.882
1393706433255,176.349
1393706493255,176.182
1393706553255,175.754
1393706613255,176.763
1393706673255,176.482
1393706733255,175.961
1393706793255,176.598
1393706853255,176.689
1393706913255,176.289
1393706973255,176.418
1393707033255,176.489
1393707093255,176.592
1393707153255,176.746
1393707213255,176.687
1393707273255,176.679
1393707333255,176.493
1393707393255,176.302
1393707453255,176.724
1393707513255,176.796
1393707573255,176.784
1393707633268,176.606
1393707693268,176.512
1393707753268,176.739
1393707813268,176.709
1393707873268,177.177
1393707933268,177.035
1393707993268,177.086
1393708053268,176.978
1393708113268,177.239
1393708173268,176.546
1393708233268,177.087
1393708293268,176.993
1393708353268,177.341
1393708413268,177.113
1393708473268,176.807
1393708533268,177.214
1393708593268,177.261
1393708653268,177.156
1393708713268,177.333
1393708773268,177.309
1393708833268,177.172
1393708893268,177.406
1393708953268,177.264
1393709013268,177.279
1393709073268,176.944
1393709133268,177.323
1393709193268,177.297
1393709253268,177.217
1393709313268,177.418
1393709373268,177.593
1393709433268,177.597
1393709493268,177.365
1393709553268,177.542